User: anonymous   Login
Location: Ashtead
(51.3000°N, 0.3000°W)
Time: 22:28:54
(UTC+00:00)
Language:

Cosmos 883 Rocket - Orbit

View from above orbital plane
View from above orbital plane
View from above satellite
View from above satellite

Ground track
Ground track

The orbit data is extracted from the following two-line orbital elements,

1 09613U 76122B   24055.57790848  .00000099  00000-0  84184-4 0  9998
2 09613  82.9556 137.4137 0028715 281.1697  78.6232 13.77606952371453
Epoch (UTC): 24 February 2024 13:52:11
Eccentricity: 0.0028715
inclination: 82.9556°
perigee height: 951 km
apogee height: 993 km
right ascension of ascending node: 137.4137°
argument of perigee: 281.1697°
revolutions per day: 13.77606952
mean anomaly at epoch: 78.6232°
orbit number at epoch: 37145

The dashed part of the orbit path shows where the satellite is in the earth's shadow,  

DLR